Time,TemperatureF,DewpointF,PressureIn,WindDirection,WindDirectionDegrees,WindSpeedMPH,WindSpeedGustMPH,Humidity,HourlyPrecipIn,Conditions,Clouds,dailyrainin,SolarRadiationWatts/m^2,SoftwareType,DateUTC
2014-10-01 00:02:00,62.1,57.9,29.83,WNW,282,0.0,0.0,86,0.00,CLR,,0.00,0.0,WeatherDisplay:10.37,2014-10-01 07:02:00,
2014-10-01 00:07:00,62.0,57.8,29.83,WNW,282,0.0,0.0,86,0.00,CLR,,0.00,0.0,WeatherDisplay:10.37,2014-10-01 07:07:00,
2014-10-01 00:12:00,62.0,57.8,29.83,WNW,282,0.0,0.0,86,0.00,CLR,,0.00,0.0,WeatherDisplay:10.37,2014-10-01 07:12:00,
2014-10-01 00:17:00,61.8,57.9,29.83,WNW,283,0.0,0.0,87,0.00,CLR,,0.00,0.0,WeatherDisplay:10.37,2014-10-01 07:17:00,
2014-10-01 00:22:00,62.0,58.1,29.83,WNW,282,0.0,0.0,87,0.00,CLR,,0.00,0.0,WeatherDisplay:10.37,2014-10-01 07:22:00,
2014-10-01 00:27:00,61.8,57.9,29.83,WNW,282,0.0,0.0,87,0.00,CLR,,0.00,0.0,WeatherDisplay:10.37,2014-10-01 07:27:00,
2014-10-01 00:32:00,61.6,57.7,29.83,WNW,283,0.0,0.0,87,0.00,CLR,,0.00,0.0,WeatherDisplay:10.37,2014-10-01 07:32:00,
2014-10-01 00:37:00,61.6,57.7,29.83,WNW,283,0.0,0.0,87,0.00,CLR,,0.00,0.0,WeatherDisplay:10.37,2014-10-01 07:37:00,
2014-10-01 00:42:00,61.3,57.4,29.83,WNW,282,0.0,0.0,87,0.00,CLR,,0.00,0.0,WeatherDisplay:10.37,2014-10-01 07:42:00,
2014-10-01 00:46:00,61.3,57.4,29.83,WNW,282,0.0,0.0,87,0.00,CLR,,0.00,0.0,WeatherDisplay:10.37,2014-10-01 07:46:00,
2014-10-01 00:51:00,61.2,57.3,29.83,WNW,282,0.0,0.0,87,0.00,CLR,,0.00,0.0,WeatherDisplay:10.37,2014-10-01 07:51:00,
2014-10-01 00:56:00,60.9,57.0,29.83,WNW,282,0.0,0.0,87,0.00,CLR,,0.00,0.0,WeatherDisplay:10.37,2014-10-01 07:56:00,
2014-10-01 01:01:00,60.7,56.8,29.83,WNW,282,0.0,0.0,87,0.00,CLR,,0.00,0.0,WeatherDisplay:10.37,2014-10-01 08:01:00,
2014-10-01 01:06:00,60.5,56.6,29.83,WNW,283,0.0,0.0,87,0.00,CLR,,0.00,0.0,WeatherDisplay:10.37,2014-10-01 08:06:00,
2014-10-01 01:11:00,60.4,56.5,29.83,WNW,282,0.0,0.0,87,0.00,CLR,,0.00,0.0,WeatherDisplay:10.37,2014-10-01 08:11:00,
2014-10-01 01:16:00,60.4,56.5,29.83,WNW,282,0.0,0.0,87,0.00,CLR,,0.00,0.0,WeatherDisplay:10.37,2014-10-01 08:16:00,
2014-10-01 01:21:00,60.2,56.6,29.83,WNW,282,0.0,0.0,88,0.00,CLR,,0.00,0.0,WeatherDisplay:10.37,2014-10-01 08:21:00,
2014-10-01 01:26:00,60.1,56.5,29.83,WNW,282,0.0,0.0,88,0.00,CLR,,0.00,0.0,WeatherDisplay:10.37,2014-10-01 08:26:00,
2014-10-01 01:31:00,60.2,56.6,29.83,WNW,282,0.0,0.0,88,0.00,CLR,,0.00,0.0,WeatherDisplay:10.37,2014-10-01 08:31:00,
2014-10-01 01:36:00,60.1,56.2,29.83,WNW,282,0.0,0.0,87,0.00,CLR,,0.00,0.0,WeatherDisplay:10.37,2014-10-01 08:36:00,
2014-10-01 01:41:00,59.8,55.9,29.83,WNW,283,0.0,0.0,87,0.00,CLR,,0.00,0.0,WeatherDisplay:10.37,2014-10-01 08:41:00,
2014-10-01 01:46:00,59.5,55.6,29.83,WNW,283,0.0,0.0,87,0.00,CLR,,0.00,0.0,WeatherDisplay:10.37,2014-10-01 08:46:00,
2014-10-01 01:51:00,59.3,55.7,29.83,WNW,283,0.0,0.0,88,0.00,CLR,,0.00,0.0,WeatherDisplay:10.37,2014-10-01 08:51:00,
2014-10-01 01:56:00,59.3,55.7,29.83,WNW,282,0.0,0.0,88,0.00,CLR,,0.00,0.0,WeatherDisplay:10.37,2014-10-01 08:56:00,
2014-10-01 02:01:00,59.2,55.6,29.83,WNW,283,0.0,0.0,88,0.00,CLR,,0.00,0.0,WeatherDisplay:10.37,2014-10-01 09:01:00,
2014-10-01 02:06:00,59.0,55.4,29.83,WNW,282,0.0,0.0,88,0.00,CLR,,0.00,0.0,WeatherDisplay:10.37,2014-10-01 09:06:00,
2014-10-01 02:11:00,59.0,55.4,29.83,WNW,282,0.0,0.0,88,0.00,CLR,,0.00,0.0,WeatherDisplay:10.37,2014-10-01 09:11:00,
2014-10-01 02:16:00,59.0,55.4,29.83,WNW,283,0.0,0.0,88,0.00,CLR,,0.00,0.0,WeatherDisplay:10.37,2014-10-01 09:16:00,
2014-10-01 02:21:00,59.2,55.6,29.83,WNW,283,0.0,0.0,88,0.00,CLR,,0.00,0.0,WeatherDisplay:10.37,2014-10-01 09:21:00,
2014-10-01 02:26:00,59.0,55.4,29.83,WNW,283,0.0,0.0,88,0.00,CLR,,0.00,0.0,WeatherDisplay:10.37,2014-10-01 09:26:00,
2014-10-01 02:31:00,58.9,55.4,29.84,WNW,282,0.0,0.0,88,0.00,CLR,,0.00,0.0,WeatherDisplay:10.37,2014-10-01 09:31:00,
2014-10-01 02:36:00,58.9,55.4,29.84,WNW,282,0.0,0.0,88,0.00,CLR,,0.00,0.0,WeatherDisplay:10.37,2014-10-01 09:36:00,
2014-10-01 02:41:00,59.0,55.4,29.84,WNW,283,0.0,0.0,88,0.00,CLR,,0.00,0.0,WeatherDisplay:10.37,2014-10-01 09:41:00,
2014-10-01 02:45:00,58.9,55.4,29.83,WNW,283,0.0,0.0,88,0.00,CLR,,0.00,0.0,WeatherDisplay:10.37,2014-10-01 09:45:00,
2014-10-01 02:50:00,58.9,55.4,29.83,WNW,282,0.0,0.0,88,0.00,CLR,,0.00,0.0,WeatherDisplay:10.37,2014-10-01 09:50:00,
2014-10-01 02:55:00,58.9,55.4,29.83,WNW,282,0.0,0.0,88,0.00,CLR,,0.00,0.0,WeatherDisplay:10.37,2014-10-01 09:55:00,
2014-10-01 03:00:00,58.7,55.2,29.83,WNW,282,0.0,0.0,88,0.00,CLR,,0.00,0.0,WeatherDisplay:10.37,2014-10-01 10:00:00,
2014-10-01 03:05:00,58.4,54.9,29.83,WNW,283,0.0,0.0,88,0.00,CLR,,0.00,0.0,WeatherDisplay:10.37,2014-10-01 10:05:00,
2014-10-01 03:10:00,58.1,54.6,29.83,WNW,283,0.0,0.0,88,0.00,CLR,,0.00,0.0,WeatherDisplay:10.37,2014-10-01 10:10:00,
2014-10-01 03:15:00,58.0,54.5,29.83,WNW,282,0.0,0.0,88,0.00,CLR,,0.00,0.0,WeatherDisplay:10.37,2014-10-01 10:15:00,
2014-10-01 03:20:00,57.8,54.3,29.83,WNW,282,0.0,0.0,88,0.00,CLR,,0.00,0.0,WeatherDisplay:10.37,2014-10-01 10:20:00,
2014-10-01 03:25:00,57.5,54.0,29.83,WNW,282,0.0,0.0,88,0.00,CLR,,0.00,0.0,WeatherDisplay:10.37,2014-10-01 10:25:00,
2014-10-01 03:30:00,57.5,54.3,29.83,WNW,282,0.0,0.0,89,0.00,CLR,,0.00,0.0,WeatherDisplay:10.37,2014-10-01 10:30:00,
2014-10-01 03:35:00,57.3,54.1,29.83,WNW,282,0.0,0.0,89,0.00,CLR,,0.00,0.0,WeatherDisplay:10.37,2014-10-01 10:35:00,
2014-10-01 03:40:00,57.2,54.0,29.83,WNW,282,0.0,0.0,89,0.00,CLR,,0.00,0.0,WeatherDisplay:10.37,2014-10-01 10:40:00,
2014-10-01 03:45:00,57.2,54.0,29.83,WNW,282,0.0,0.0,89,0.00,CLR,,0.00,0.0,WeatherDisplay:10.37,2014-10-01 10:45:00,
2014-10-01 03:50:00,57.2,54.0,29.83,WNW,283,0.0,0.0,89,0.00,CLR,,0.00,0.0,WeatherDisplay:10.37,2014-10-01 10:50:00,
2014-10-01 03:55:00,57.2,54.0,29.83,WNW,282,0.0,0.0,89,0.00,CLR,,0.00,0.0,WeatherDisplay:10.37,2014-10-01 10:55:00,
2014-10-01 04:00:00,57.2,54.0,29.83,WNW,282,0.0,0.0,89,0.00,CLR,,0.00,0.0,WeatherDisplay:10.37,2014-10-01 11:00:00,
2014-10-01 04:05:00,57.0,53.8,29.83,WNW,282,0.0,0.0,89,0.00,CLR,,0.00,0.0,WeatherDisplay:10.37,2014-10-01 11:05:00,
2014-10-01 04:10:00,57.0,54.1,29.83,WNW,283,0.0,0.0,90,0.00,CLR,,0.00,0.0,WeatherDisplay:10.37,2014-10-01 11:10:00,
2014-10-01 04:15:00,57.0,54.1,29.83,WNW,282,0.0,0.0,90,0.00,CLR,,0.00,0.0,WeatherDisplay:10.37,2014-10-01 11:15:00,
2014-10-01 04:20:00,57.0,54.1,29.83,WNW,282,0.0,0.0,90,0.00,CLR,,0.00,0.0,WeatherDisplay:10.37,2014-10-01 11:20:00,
2014-10-01 04:25:00,57.0,54.1,29.83,WNW,282,0.0,0.0,90,0.00,CLR,,0.00,0.0,WeatherDisplay:10.37,2014-10-01 11:25:00,
2014-10-01 04:30:00,57.0,54.1,29.83,WNW,282,0.0,0.0,90,0.00,CLR,,0.00,0.0,WeatherDisplay:10.37,2014-10-01 11:30:00,
2014-10-01 04:35:00,56.7,53.8,29.83,WNW,283,0.0,0.0,90,0.00,CLR,,0.00,0.0,WeatherDisplay:10.37,2014-10-01 11:35:00,
2014-10-01 04:40:00,56.6,53.7,29.83,WNW,282,0.0,0.0,90,0.00,CLR,,0.00,0.0,WeatherDisplay:10.37,2014-10-01 11:40:00,
2014-10-01 04:45:00,56.6,53.7,29.83,WNW,282,0.0,0.0,90,0.00,CLR,,0.00,0.0,WeatherDisplay:10.37,2014-10-01 11:45:00,
2014-10-01 04:50:00,56.7,53.8,29.83,WNW,283,0.0,0.0,90,0.00,CLR,,0.00,0.0,WeatherDisplay:10.37,2014-10-01 11:50:00,
2014-10-01 04:55:00,56.5,53.6,29.83,WNW,282,0.0,0.0,90,0.00,CLR,,0.00,0.0,WeatherDisplay:10.37,2014-10-01 11:55:00,
2014-10-01 05:00:00,56.3,53.4,29.84,WNW,282,0.0,0.0,90,0.00,CLR,,0.00,0.0,WeatherDisplay:10.37,2014-10-01 12:00:00,
2014-10-01 05:05:00,56.2,53.3,29.84,WNW,282,0.0,0.0,90,0.00,CLR,,0.00,0.0,WeatherDisplay:10.37,2014-10-01 12:05:00,
2014-10-01 05:10:00,56.0,53.1,29.84,WNW,282,0.0,0.0,90,0.00,CLR,,0.00,0.0,WeatherDisplay:10.37,2014-10-01 12:10:00,
2014-10-01 05:15:00,55.9,53.0,29.83,WNW,282,0.0,0.0,90,0.00,CLR,,0.00,0.0,WeatherDisplay:10.37,2014-10-01 12:15:00,
2014-10-01 05:20:00,55.9,53.0,29.83,WNW,282,0.0,0.0,90,0.00,CLR,,0.00,0.0,WeatherDisplay:10.37,2014-10-01 12:20:00,
2014-10-01 05:25:00,55.9,53.0,29.83,WNW,282,0.0,0.0,90,0.00,CLR,,0.00,0.0,WeatherDisplay:10.37,2014-10-01 12:25:00,
2014-10-01 05:30:00,56.2,53.6,29.84,WNW,282,0.0,0.0,91,0.00,CLR,,0.00,0.0,WeatherDisplay:10.37,2014-10-01 12:30:00,
2014-10-01 05:35:00,56.3,53.7,29.84,WNW,282,0.0,0.0,91,0.00,CLR,,0.00,0.0,WeatherDisplay:10.37,2014-10-01 12:35:00,
2014-10-01 05:40:00,56.3,53.4,29.84,WNW,282,0.0,0.0,90,0.00,CLR,,0.00,0.0,WeatherDisplay:10.37,2014-10-01 12:40:00,
2014-10-01 05:45:00,56.3,53.7,29.84,WNW,282,0.0,0.0,91,0.00,CLR,,0.00,0.0,WeatherDisplay:10.37,2014-10-01 12:45:00,
2014-10-01 05:50:00,56.0,53.4,29.84,WNW,282,0.0,0.0,91,0.00,CLR,,0.00,0.0,WeatherDisplay:10.37,2014-10-01 12:50:00,
2014-10-01 05:55:00,55.9,53.0,29.84,WNW,283,0.0,0.0,90,0.00,CLR,,0.00,0.0,WeatherDisplay:10.37,2014-10-01 12:55:00,
2014-10-01 06:00:00,55.9,53.3,29.85,WNW,283,0.0,0.0,91,0.00,CLR,,0.00,0.0,WeatherDisplay:10.37,2014-10-01 13:00:00,
2014-10-01 06:05:00,55.9,53.3,29.85,WNW,282,1.2,0.0,91,0.00,CLR,,0.00,0.0,WeatherDisplay:10.37,2014-10-01 13:05:00,
2014-10-01 06:10:00,55.9,53.3,29.85,WNW,283,0.0,0.0,91,0.00,CLR,,0.00,0.0,WeatherDisplay:10.37,2014-10-01 13:10:00,
2014-10-01 06:15:00,55.9,53.3,29.85,WNW,282,0.0,0.0,91,0.00,CLR,,0.00,0.0,WeatherDisplay:10.37,2014-10-01 13:15:00,
2014-10-01 06:20:00,56.0,53.4,29.85,West,281,0.0,0.0,91,0.00,CLR,,0.00,0.0,WeatherDisplay:10.37,2014-10-01 13:20:00,
2014-10-01 06:25:00,56.2,53.6,29.85,WNW,282,0.0,0.0,91,0.00,CLR,,0.00,0.0,WeatherDisplay:10.37,2014-10-01 13:25:00,
2014-10-01 06:30:00,56.5,53.9,29.86,WNW,282,0.0,0.0,91,0.00,CLR,,0.00,0.0,WeatherDisplay:10.37,2014-10-01 13:30:00,
2014-10-01 06:35:00,56.5,53.9,29.86,WNW,283,0.0,0.0,91,0.00,CLR,,0.00,0.0,WeatherDisplay:10.37,2014-10-01 13:35:00,
2014-10-01 06:40:00,56.6,54.0,29.86,WNW,282,0.0,0.0,91,0.00,CLR,,0.00,0.0,WeatherDisplay:10.37,2014-10-01 13:40:00,
2014-10-01 06:44:00,56.6,54.0,29.86,WNW,282,0.0,0.0,91,0.00,CLR,,0.00,0.0,WeatherDisplay:10.37,2014-10-01 13:44:00,
2014-10-01 06:49:00,56.2,53.6,29.86,WNW,282,0.0,0.0,91,0.00,CLR,,0.00,0.0,WeatherDisplay:10.37,2014-10-01 13:49:00,
2014-10-01 06:54:00,56.0,53.4,29.86,WNW,282,0.0,0.0,91,0.00,CLR,,0.00,0.0,WeatherDisplay:10.37,2014-10-01 13:54:00,
2014-10-01 06:59:00,55.9,53.3,29.86,WNW,282,0.0,0.0,91,0.00,CLR,,0.00,0.0,WeatherDisplay:10.37,2014-10-01 13:59:00,
2014-10-01 07:04:00,56.0,53.4,29.86,WNW,283,0.0,0.0,91,0.00,CLR,,0.00,0.0,WeatherDisplay:10.37,2014-10-01 14:04:00,
2014-10-01 07:09:00,56.2,53.6,29.86,WNW,282,0.0,0.0,91,0.00,CLR,,0.00,7.0,WeatherDisplay:10.37,2014-10-01 14:09:00,
2014-10-01 07:11:00,56.0,53.4,29.86,WNW,282,0.0,0.0,91,0.00,CLR,,0.00,9.0,WeatherDisplay:10.37,2014-10-01 14:11:00,
2014-10-01 07:16:00,55.9,53.3,29.86,WNW,282,0.0,0.0,91,0.00,CLR,,0.00,11.0,WeatherDisplay:10.37,2014-10-01 14:16:00,
2014-10-01 07:21:00,56.0,53.7,29.86,WNW,282,0.0,0.0,92,0.00,CLR,,0.00,14.0,WeatherDisplay:10.37,2014-10-01 14:21:00,
2014-10-01 07:26:00,56.5,53.9,29.86,WNW,282,0.0,0.0,91,0.00,CLR,,0.00,19.0,WeatherDisplay:10.37,2014-10-01 14:26:00,
2014-10-01 07:31:00,56.6,54.0,29.87,WNW,283,0.0,0.0,91,0.00,CLR,,0.00,28.0,WeatherDisplay:10.37,2014-10-01 14:31:00,
2014-10-01 07:36:00,56.9,54.6,29.87,WNW,283,0.0,0.0,92,0.00,CLR,,0.00,40.0,WeatherDisplay:10.37,2014-10-01 14:36:00,
2014-10-01 07:41:00,57.3,54.7,29.87,WNW,282,0.0,0.0,91,0.00,CLR,,0.00,51.0,WeatherDisplay:10.37,2014-10-01 14:41:00,
2014-10-01 07:46:00,57.5,54.9,29.88,WNW,282,1.0,0.0,91,0.00,CLR,,0.00,63.0,WeatherDisplay:10.37,2014-10-01 14:46:00,
2014-10-01 07:51:00,57.6,55.0,29.88,WNW,283,0.0,0.0,91,0.00,CLR,,0.00,77.0,WeatherDisplay:10.37,2014-10-01 14:51:00,
2014-10-01 07:56:00,58.3,55.7,29.88,WNW,282,0.0,0.0,91,0.00,CLR,,0.00,88.0,WeatherDisplay:10.37,2014-10-01 14:56:00,
2014-10-01 08:01:00,59.2,56.9,29.88,WNW,282,0.0,0.0,92,0.00,CLR,,0.00,105.0,WeatherDisplay:10.37,2014-10-01 15:01:00,
2014-10-01 08:06:00,59.8,57.2,29.88,WNW,282,0.0,0.0,91,0.00,CLR,,0.00,121.0,WeatherDisplay:10.37,2014-10-01 15:06:00,
2014-10-01 08:11:00,60.5,57.6,29.88,WNW,282,0.0,0.0,90,0.00,CLR,,0.00,137.0,WeatherDisplay:10.37,2014-10-01 15:11:00,
2014-10-01 08:16:00,61.3,58.3,29.88,WNW,283,0.0,0.0,90,0.00,CLR,,0.00,155.0,WeatherDisplay:10.37,2014-10-01 15:16:00,
2014-10-01 08:21:00,62.1,59.1,29.88,WNW,282,1.2,0.0,90,0.00,CLR,,0.00,174.0,WeatherDisplay:10.37,2014-10-01 15:21:00,
2014-10-01 08:26:00,62.9,59.3,29.88,WNW,282,0.0,0.0,88,0.00,CLR,,0.00,192.0,WeatherDisplay:10.37,2014-10-01 15:26:00,
2014-10-01 08:31:00,63.2,59.6,29.89,WNW,282,0.0,0.0,88,0.00,CLR,,0.00,207.0,WeatherDisplay:10.37,2014-10-01 15:31:00,
2014-10-01 08:36:00,64.3,60.7,29.89,WNW,282,0.0,0.0,88,0.00,CLR,,0.00,225.0,WeatherDisplay:10.37,2014-10-01 15:36:00,
2014-10-01 08:40:00,65.0,60.7,29.89,WNW,282,0.0,0.0,86,0.00,CLR,,0.00,239.0,WeatherDisplay:10.37,2014-10-01 15:40:00,
2014-10-01 08:45:00,65.8,61.2,29.89,WNW,282,0.0,0.0,85,0.00,CLR,,0.00,257.0,WeatherDisplay:10.37,2014-10-01 15:45:00,
2014-10-01 08:50:00,66.4,60.7,29.89,WNW,282,0.0,0.0,82,0.00,CLR,,0.00,274.0,WeatherDisplay:10.37,2014-10-01 15:50:00,
2014-10-01 08:55:00,66.3,59.9,29.89,WNW,282,1.2,0.0,80,0.00,CLR,,0.00,292.0,WeatherDisplay:10.37,2014-10-01 15:55:00,
2014-10-01 09:00:00,66.9,60.5,29.89,WNW,283,0.0,0.0,80,0.00,CLR,,0.00,309.0,WeatherDisplay:10.37,2014-10-01 16:00:00,
2014-10-01 09:05:00,67.1,60.0,29.89,WNW,282,0.0,0.0,78,0.00,CLR,,0.00,334.0,WeatherDisplay:10.37,2014-10-01 16:05:00,
2014-10-01 09:10:00,67.6,59.8,29.89,WNW,283,0.0,0.0,76,0.00,CLR,,0.00,350.0,WeatherDisplay:10.37,2014-10-01 16:10:00,
2014-10-01 09:15:00,68.3,59.7,29.89,WNW,282,1.2,1.2,74,0.00,CLR,,0.00,373.0,WeatherDisplay:10.37,2014-10-01 16:15:00,
2014-10-01 09:20:00,68.1,59.1,29.89,WNW,282,0.0,0.0,73,0.00,CLR,,0.00,387.0,WeatherDisplay:10.37,2014-10-01 16:20:00,
2014-10-01 09:25:00,68.4,59.0,29.89,WNW,282,0.0,0.0,72,0.00,CLR,,0.00,403.0,WeatherDisplay:10.37,2014-10-01 16:25:00,
2014-10-01 09:30:00,68.3,58.1,29.89,WNW,282,1.2,0.0,70,0.00,CLR,,0.00,418.0,WeatherDisplay:10.37,2014-10-01 16:30:00,
2014-10-01 09:35:00,68.3,56.9,29.89,WNW,283,1.2,0.0,67,0.00,CLR,,0.00,431.0,WeatherDisplay:10.37,2014-10-01 16:35:00,
2014-10-01 09:40:00,68.1,57.1,29.89,WNW,282,2.3,2.3,68,0.00,CLR,,0.00,450.0,WeatherDisplay:10.37,2014-10-01 16:40:00,
2014-10-01 09:45:00,68.3,55.6,29.89,WNW,283,1.2,1.2,64,0.00,CLR,,0.00,464.0,WeatherDisplay:10.37,2014-10-01 16:45:00,
2014-10-01 09:50:00,68.4,52.6,29.89,WNW,283,0.0,0.0,57,0.00,CLR,,0.00,482.0,WeatherDisplay:10.37,2014-10-01 16:50:00,
2014-10-01 09:55:00,68.8,52.0,29.89,WNW,282,1.2,1.2,55,0.00,CLR,,0.00,497.0,WeatherDisplay:10.37,2014-10-01 16:55:00,
2014-10-01 10:00:00,69.3,50.9,29.89,WNW,282,0.0,0.0,52,0.00,CLR,,0.00,512.0,WeatherDisplay:10.37,2014-10-01 17:00:00,
2014-10-01 10:05:00,70.1,51.1,29.89,WNW,282,3.0,3.0,51,0.00,CLR,,0.00,524.0,WeatherDisplay:10.37,2014-10-01 17:05:00,
2014-10-01 10:10:00,70.8,52.3,29.89,WNW,283,5.8,5.8,52,0.00,CLR,,0.00,534.0,WeatherDisplay:10.37,2014-10-01 17:10:00,
2014-10-01 10:15:00,71.5,55.0,29.89,WNW,282,4.6,4.6,56,0.00,CLR,,0.00,548.0,WeatherDisplay:10.37,2014-10-01 17:15:00,
2014-10-01 10:20:00,70.9,53.4,29.89,WNW,282,6.0,6.0,54,0.00,CLR,,0.00,564.0,WeatherDisplay:10.37,2014-10-01 17:20:00,
2014-10-01 10:25:00,70.9,51.3,29.89,WNW,282,0.0,0.3,50,0.00,CLR,,0.00,575.0,WeatherDisplay:10.37,2014-10-01 17:25:00,
2014-10-01 10:30:00,71.5,50.2,29.89,WNW,282,4.6,4.6,47,0.00,CLR,,0.00,589.0,WeatherDisplay:10.37,2014-10-01 17:30:00,
2014-10-01 10:35:00,72.1,49.0,29.89,WNW,282,3.5,3.5,44,0.00,CLR,,0.00,598.0,WeatherDisplay:10.37,2014-10-01 17:35:00,
2014-10-01 10:39:00,72.3,49.2,29.89,WNW,282,4.6,4.6,44,0.00,CLR,,0.00,608.0,WeatherDisplay:10.37,2014-10-01 17:39:00,
2014-10-01 10:44:00,72.8,49.6,29.89,WNW,282,5.8,5.8,44,0.00,CLR,,0.00,619.0,WeatherDisplay:10.37,2014-10-01 17:44:00,
2014-10-01 10:49:00,72.7,49.5,29.89,WSW,245,9.2,9.2,44,0.00,CLR,,0.00,628.0,WeatherDisplay:10.37,2014-10-01 17:49:00,
2014-10-01 10:54:00,72.7,47.0,29.89,WSW,258,9.2,9.2,40,0.00,CLR,,0.00,640.0,WeatherDisplay:10.37,2014-10-01 17:54:00,
2014-10-01 10:59:00,72.7,46.3,29.89,West,262,10.4,10.4,39,0.00,CLR,,0.00,649.0,WeatherDisplay:10.37,2014-10-01 17:59:00,
2014-10-01 11:04:00,72.8,46.4,29.89,WSW,252,5.0,5.0,39,0.00,CLR,,0.00,652.0,WeatherDisplay:10.37,2014-10-01 18:04:00,
2014-10-01 11:09:00,73.5,45.6,29.89,WNW,289,6.9,6.9,37,0.00,CLR,,0.00,666.0,WeatherDisplay:10.37,2014-10-01 18:09:00,
2014-10-01 11:14:00,73.9,45.3,29.89,West,262,3.5,3.5,36,0.00,CLR,,0.00,675.0,WeatherDisplay:10.37,2014-10-01 18:14:00,
2014-10-01 11:19:00,74.0,46.1,29.89,West,261,3.5,3.5,37,0.00,CLR,,0.00,691.0,WeatherDisplay:10.37,2014-10-01 18:19:00,
2014-10-01 11:24:00,74.6,46.6,29.89,WSW,241,6.0,6.0,37,0.00,CLR,,0.00,696.0,WeatherDisplay:10.37,2014-10-01 18:24:00,
2014-10-01 11:29:00,74.7,45.2,29.89,West,265,10.4,10.4,35,0.00,CLR,,0.00,705.0,WeatherDisplay:10.37,2014-10-01 18:29:00,
2014-10-01 11:34:00,74.6,45.1,29.89,WSW,250,10.4,10.4,35,0.00,CLR,,0.00,714.0,WeatherDisplay:10.37,2014-10-01 18:34:00,
2014-10-01 11:39:00,74.6,44.4,29.89,WSW,237,10.4,10.4,34,0.00,CLR,,0.00,719.0,WeatherDisplay:10.37,2014-10-01 18:39:00,
2014-10-01 11:44:00,74.6,44.4,29.89,WSW,249,9.2,9.2,34,0.00,CLR,,0.00,726.0,WeatherDisplay:10.37,2014-10-01 18:44:00,
2014-10-01 11:49:00,74.9,44.6,29.88,WSW,256,7.0,7.0,34,0.00,CLR,,0.00,733.0,WeatherDisplay:10.37,2014-10-01 18:49:00,
2014-10-01 11:54:00,75.6,44.5,29.88,WSW,256,5.8,5.8,33,0.00,CLR,,0.00,738.0,WeatherDisplay:10.37,2014-10-01 18:54:00,
2014-10-01 11:59:00,76.0,44.0,29.88,WSW,248,6.9,6.9,32,0.00,CLR,,0.00,745.0,WeatherDisplay:10.37,2014-10-01 18:59:00,
2014-10-01 12:04:00,75.6,43.7,29.88,WSW,254,6.0,6.0,32,0.00,CLR,,0.00,749.0,WeatherDisplay:10.37,2014-10-01 19:04:00,
2014-10-01 12:09:00,75.8,43.0,29.88,WSW,251,5.0,5.0,31,0.00,CLR,,0.00,756.0,WeatherDisplay:10.37,2014-10-01 19:09:00,
2014-10-01 12:14:00,76.5,42.7,29.88,WSW,249,3.5,3.5,30,0.00,CLR,,0.00,759.0,WeatherDisplay:10.37,2014-10-01 19:14:00,
2014-10-01 12:19:00,77.0,43.2,29.87,WSW,258,3.5,0.0,30,0.00,CLR,,0.00,763.0,WeatherDisplay:10.37,2014-10-01 19:19:00,
2014-10-01 12:24:00,77.4,43.5,29.87,WSW,258,5.0,5.0,30,0.00,CLR,,0.00,766.0,WeatherDisplay:10.37,2014-10-01 19:24:00,
2014-10-01 12:29:00,77.7,42.9,29.87,West,263,8.1,8.1,29,0.00,CLR,,0.00,770.0,WeatherDisplay:10.37,2014-10-01 19:29:00,
2014-10-01 12:34:00,77.4,42.6,29.87,West,268,8.1,8.1,29,0.00,CLR,,0.00,773.0,WeatherDisplay:10.37,2014-10-01 19:34:00,
2014-10-01 12:37:00,77.2,43.4,29.87,West,268,5.8,5.8,30,0.00,CLR,,0.00,772.0,WeatherDisplay:10.37,2014-10-01 19:37:00,
2014-10-01 12:42:00,77.6,42.8,29.87,West,268,4.0,0.0,29,0.00,CLR,,0.00,775.0,WeatherDisplay:10.37,2014-10-01 19:42:00,
2014-10-01 12:47:00,77.9,43.1,29.87,West,268,5.0,5.0,29,0.00,CLR,,0.00,775.0,WeatherDisplay:10.37,2014-10-01 19:47:00,
2014-10-01 12:52:00,77.9,43.1,29.87,West,264,4.6,4.6,29,0.00,CLR,,0.00,779.0,WeatherDisplay:10.37,2014-10-01 19:52:00,
2014-10-01 12:57:00,77.9,42.2,29.87,West,263,5.8,5.8,28,0.00,CLR,,0.00,779.0,WeatherDisplay:10.37,2014-10-01 19:57:00,
2014-10-01 13:02:00,78.1,42.3,29.86,West,264,5.0,5.0,28,0.00,CLR,,0.00,777.0,WeatherDisplay:10.37,2014-10-01 20:02:00,
2014-10-01 13:07:00,78.5,42.7,29.86,West,264,3.5,3.5,28,0.00,CLR,,0.00,777.0,WeatherDisplay:10.37,2014-10-01 20:07:00,
2014-10-01 13:12:00,78.8,42.9,29.86,West,260,7.0,7.0,28,0.00,CLR,,0.00,777.0,WeatherDisplay:10.37,2014-10-01 20:12:00,
2014-10-01 13:17:00,78.8,42.0,29.86,WSW,250,10.4,10.4,27,0.00,CLR,,0.00,775.0,WeatherDisplay:10.37,2014-10-01 20:17:00,
2014-10-01 13:19:00,78.8,44.7,29.86,West,260,5.8,5.8,30,0.00,CLR,,0.00,773.0,WeatherDisplay:10.37,2014-10-01 20:19:00,
2014-10-01 13:24:00,79.2,45.1,29.86,WSW,256,9.2,9.2,30,0.00,CLR,,0.00,772.0,WeatherDisplay:10.37,2014-10-01 20:24:00,
2014-10-01 13:29:00,78.5,44.5,29.86,WSW,257,12.7,12.7,30,0.00,CLR,,0.00,772.0,WeatherDisplay:10.37,2014-10-01 20:29:00,
2014-10-01 13:34:00,78.3,43.4,29.86,WSW,255,11.5,11.5,29,0.00,CLR,,0.00,770.0,WeatherDisplay:10.37,2014-10-01 20:34:00,
2014-10-01 13:39:00,78.6,44.6,29.86,West,271,10.0,10.0,30,0.00,CLR,,0.00,765.0,WeatherDisplay:10.37,2014-10-01 20:39:00,
2014-10-01 13:44:00,78.5,43.6,29.86,WSW,248,10.0,10.0,29,0.00,CLR,,0.00,763.0,WeatherDisplay:10.37,2014-10-01 20:44:00,
2014-10-01 13:49:00,78.3,44.3,29.86,West,277,12.7,12.7,30,0.00,CLR,,0.00,758.0,WeatherDisplay:10.37,2014-10-01 20:49:00,
2014-10-01 13:54:00,78.6,44.6,29.86,West,279,10.4,10.4,30,0.00,CLR,,0.00,752.0,WeatherDisplay:10.37,2014-10-01 20:54:00,
2014-10-01 13:59:00,78.6,42.8,29.86,WSW,258,12.7,12.7,28,0.00,CLR,,0.00,749.0,WeatherDisplay:10.37,2014-10-01 20:59:00,
2014-10-01 14:04:00,79.2,42.3,29.85,WSW,255,6.9,6.9,27,0.00,CLR,,0.00,744.0,WeatherDisplay:10.37,2014-10-01 21:04:00,
2014-10-01 14:09:00,79.2,43.3,29.85,West,272,11.5,11.5,28,0.00,CLR,,0.00,738.0,WeatherDisplay:10.37,2014-10-01 21:09:00,
2014-10-01 14:14:00,79.8,42.8,29.85,West,277,9.2,9.2,27,0.00,CLR,,0.00,737.0,WeatherDisplay:10.37,2014-10-01 21:14:00,
2014-10-01 14:19:00,79.8,42.8,29.85,West,274,11.5,11.5,27,0.00,CLR,,0.00,726.0,WeatherDisplay:10.37,2014-10-01 21:19:00,
2014-10-01 14:24:00,79.0,43.1,29.85,WSW,245,11.5,11.5,28,0.00,CLR,,0.00,719.0,WeatherDisplay:10.37,2014-10-01 21:24:00,
2014-10-01 14:29:00,79.2,43.3,29.85,West,270,10.4,10.4,28,0.00,CLR,,0.00,712.0,WeatherDisplay:10.37,2014-10-01 21:29:00,
2014-10-01 14:34:00,79.4,42.5,29.84,West,277,11.5,11.5,27,0.00,CLR,,0.00,705.0,WeatherDisplay:10.37,2014-10-01 21:34:00,
2014-10-01 14:36:00,79.6,40.7,29.84,West,262,10.4,10.4,25,0.00,CLR,,0.00,701.0,WeatherDisplay:10.37,2014-10-01 21:36:00,
2014-10-01 14:41:00,79.9,40.9,29.84,West,274,11.5,11.5,25,0.00,CLR,,0.00,696.0,WeatherDisplay:10.37,2014-10-01 21:41:00,
2014-10-01 14:46:00,80.5,41.4,29.83,West,272,11.5,11.5,25,0.00,CLR,,0.00,687.0,WeatherDisplay:10.37,2014-10-01 21:46:00,
2014-10-01 14:51:00,80.9,41.8,29.83,West,264,11.5,11.5,25,0.00,CLR,,0.00,679.0,WeatherDisplay:10.37,2014-10-01 21:51:00,
2014-10-01 14:56:00,81.2,42.0,29.83,WSW,252,11.0,11.0,25,0.00,CLR,,0.00,673.0,WeatherDisplay:10.37,2014-10-01 21:56:00,
2014-10-01 15:01:00,80.9,42.8,29.83,WNW,283,15.0,15.0,26,0.00,CLR,,0.00,661.0,WeatherDisplay:10.37,2014-10-01 22:01:00,
2014-10-01 15:06:00,81.2,44.0,29.83,WNW,297,5.8,5.8,27,0.00,CLR,,0.00,647.0,WeatherDisplay:10.37,2014-10-01 22:06:00,
2014-10-01 15:11:00,81.4,43.2,29.83,WSW,258,11.5,11.5,26,0.00,CLR,,0.00,636.0,WeatherDisplay:10.37,2014-10-01 22:11:00,
2014-10-01 15:16:00,81.6,42.4,29.84,WSW,253,12.7,12.7,25,0.00,CLR,,0.00,624.0,WeatherDisplay:10.37,2014-10-01 22:16:00,
2014-10-01 15:21:00,81.8,41.5,29.84,West,266,15.0,15.0,24,0.00,CLR,,0.00,613.0,WeatherDisplay:10.37,2014-10-01 22:21:00,
2014-10-01 15:26:00,81.6,43.4,29.84,WSW,252,8.1,8.1,26,0.00,CLR,,0.00,603.0,WeatherDisplay:10.37,2014-10-01 22:26:00,
2014-10-01 15:31:00,82.0,41.6,29.84,West,265,11.5,11.5,24,0.00,CLR,,0.00,591.0,WeatherDisplay:10.37,2014-10-01 22:31:00,
2014-10-01 15:36:00,81.4,41.1,29.84,West,279,15.0,15.0,24,0.00,CLR,,0.00,580.0,WeatherDisplay:10.37,2014-10-01 22:36:00,
2014-10-01 15:41:00,81.6,40.2,29.84,West,264,13.8,13.8,23,0.00,CLR,,0.00,570.0,WeatherDisplay:10.37,2014-10-01 22:41:00,
2014-10-01 15:46:00,81.6,39.1,29.84,WNW,288,15.0,15.0,22,0.00,CLR,,0.00,552.0,WeatherDisplay:10.37,2014-10-01 22:46:00,
2014-10-01 15:51:00,81.8,40.4,29.84,West,279,11.5,11.5,23,0.00,CLR,,0.00,538.0,WeatherDisplay:10.37,2014-10-01 22:51:00,
2014-10-01 15:56:00,82.0,41.6,29.84,West,280,13.8,13.8,24,0.00,CLR,,0.00,527.0,WeatherDisplay:10.37,2014-10-01 22:56:00,
2014-10-01 16:01:00,82.2,41.8,29.84,West,260,15.0,15.0,24,0.00,CLR,,0.00,515.0,WeatherDisplay:10.37,2014-10-01 23:01:00,
2014-10-01 16:06:00,82.4,40.9,29.84,West,266,12.7,12.7,23,0.00,CLR,,0.00,501.0,WeatherDisplay:10.37,2014-10-01 23:06:00,
2014-10-01 16:11:00,82.2,43.9,29.84,West,277,15.0,15.0,26,0.00,CLR,,0.00,487.0,WeatherDisplay:10.37,2014-10-01 23:11:00,
2014-10-01 16:16:00,80.9,49.1,29.83,WNW,283,15.0,15.0,33,0.00,CLR,,0.00,469.0,WeatherDisplay:10.37,2014-10-01 23:16:00,
2014-10-01 16:21:00,79.6,51.0,29.83,West,264,15.0,15.0,37,0.00,CLR,,0.00,455.0,WeatherDisplay:10.37,2014-10-01 23:21:00,
2014-10-01 16:26:00,79.2,49.2,29.83,West,273,17.3,17.3,35,0.00,CLR,,0.00,439.0,WeatherDisplay:10.37,2014-10-01 23:26:00,
2014-10-01 16:31:00,79.2,49.2,29.84,WNW,288,13.8,13.8,35,0.00,CLR,,0.00,427.0,WeatherDisplay:10.37,2014-10-01 23:31:00,
2014-10-01 16:34:00,79.0,49.0,29.84,WNW,292,11.5,11.5,35,0.00,CLR,,0.00,418.0,WeatherDisplay:10.37,2014-10-01 23:34:00,
2014-10-01 16:35:00,79.0,49.0,29.84,WNW,291,10.4,10.4,35,0.00,CLR,,0.00,417.0,WeatherDisplay:10.37,2014-10-01 23:35:00,
2014-10-01 16:40:00,79.0,49.8,29.84,West,276,15.0,15.0,36,0.00,CLR,,0.00,401.0,WeatherDisplay:10.37,2014-10-01 23:40:00,
2014-10-01 16:45:00,79.0,50.5,29.84,WNW,284,11.5,11.5,37,0.00,CLR,,0.00,381.0,WeatherDisplay:10.37,2014-10-01 23:45:00,
2014-10-01 16:50:00,78.8,51.0,29.84,WNW,289,9.2,9.2,38,0.00,CLR,,0.00,366.0,WeatherDisplay:10.37,2014-10-01 23:50:00,
2014-10-01 16:55:00,79.0,51.9,29.84,NW,306,14.0,14.0,39,0.00,CLR,,0.00,350.0,WeatherDisplay:10.37,2014-10-01 23:55:00,
2014-10-01 17:00:00,78.6,47.9,29.84,West,265,11.5,11.5,34,0.00,CLR,,0.00,334.0,WeatherDisplay:10.37,2014-10-02 00:00:00,
2014-10-01 17:05:00,78.5,48.6,29.84,West,271,15.0,15.0,35,0.00,CLR,,0.00,316.0,WeatherDisplay:10.37,2014-10-02 00:05:00,
2014-10-01 17:10:00,78.5,47.8,29.84,WNW,299,11.5,11.5,34,0.00,CLR,,0.00,304.0,WeatherDisplay:10.37,2014-10-02 00:10:00,
2014-10-01 17:15:00,78.6,47.1,29.84,NW,323,6.9,6.9,33,0.00,CLR,,0.00,287.0,WeatherDisplay:10.37,2014-10-02 00:15:00,
2014-10-01 17:20:00,78.6,46.3,29.84,WNW,287,11.5,11.5,32,0.00,CLR,,0.00,271.0,WeatherDisplay:10.37,2014-10-02 00:20:00,
2014-10-01 17:25:00,78.6,43.7,29.84,WNW,287,9.2,9.2,29,0.00,CLR,,0.00,253.0,WeatherDisplay:10.37,2014-10-02 00:25:00,
2014-10-01 17:30:00,78.8,43.8,29.84,West,279,10.0,10.0,29,0.00,CLR,,0.00,237.0,WeatherDisplay:10.37,2014-10-02 00:30:00,
2014-10-01 17:35:00,78.8,44.7,29.84,West,270,11.5,11.5,30,0.00,CLR,,0.00,220.0,WeatherDisplay:10.37,2014-10-02 00:35:00,
2014-10-01 17:40:00,79.0,45.8,29.84,West,279,10.4,10.4,31,0.00,CLR,,0.00,200.0,WeatherDisplay:10.37,2014-10-02 00:40:00,
2014-10-01 17:45:00,78.6,46.3,29.84,WNW,287,9.2,9.2,32,0.00,CLR,,0.00,178.0,WeatherDisplay:10.37,2014-10-02 00:45:00,
2014-10-01 17:50:00,78.5,45.3,29.84,West,274,11.5,11.5,31,0.00,CLR,,0.00,160.0,WeatherDisplay:10.37,2014-10-02 00:50:00,
2014-10-01 17:55:00,78.5,46.2,29.84,West,269,9.2,9.2,32,0.00,CLR,,0.00,139.0,WeatherDisplay:10.37,2014-10-02 00:55:00,
2014-10-01 18:00:00,78.3,48.4,29.84,WSW,253,10.0,10.0,35,0.00,CLR,,0.00,118.0,WeatherDisplay:10.37,2014-10-02 01:00:00,
2014-10-01 18:05:00,77.4,49.1,29.84,West,273,11.5,11.5,37,0.00,CLR,,0.00,98.0,WeatherDisplay:10.37,2014-10-02 01:05:00,
2014-10-01 18:10:00,76.7,49.2,29.84,West,277,11.5,11.5,38,0.00,CLR,,0.00,79.0,WeatherDisplay:10.37,2014-10-02 01:10:00,
2014-10-01 18:15:00,76.3,49.5,29.85,West,278,10.4,10.4,39,0.00,CLR,,0.00,62.0,WeatherDisplay:10.37,2014-10-02 01:15:00,
2014-10-01 18:20:00,76.1,50.0,29.85,WNW,283,10.0,10.0,40,0.00,CLR,,0.00,49.0,WeatherDisplay:10.37,2014-10-02 01:20:00,
2014-10-01 18:25:00,75.8,51.1,29.85,WNW,283,6.9,6.9,42,0.00,CLR,,0.00,37.0,WeatherDisplay:10.37,2014-10-02 01:25:00,
2014-10-01 18:30:00,75.6,50.9,29.85,WNW,291,4.6,4.6,42,0.00,CLR,,0.00,25.0,WeatherDisplay:10.37,2014-10-02 01:30:00,
2014-10-01 18:34:00,75.6,50.9,29.85,WNW,290,5.8,5.8,42,0.00,CLR,,0.00,18.0,WeatherDisplay:10.37,2014-10-02 01:34:00,
2014-10-01 18:39:00,75.4,50.7,29.85,WNW,291,3.5,3.5,42,0.00,CLR,,0.00,12.0,WeatherDisplay:10.37,2014-10-02 01:39:00,
2014-10-01 18:44:00,75.3,50.6,29.85,WNW,291,6.9,6.9,42,0.00,CLR,,0.00,9.0,WeatherDisplay:10.37,2014-10-02 01:44:00,
2014-10-01 18:49:00,74.9,51.5,29.85,WNW,290,1.2,0.0,44,0.00,CLR,,0.00,7.0,WeatherDisplay:10.37,2014-10-02 01:49:00,
2014-10-01 18:54:00,74.6,51.9,29.85,WNW,290,3.5,3.5,45,0.00,CLR,,0.00,0.0,WeatherDisplay:10.37,2014-10-02 01:54:00,
2014-10-01 18:59:00,74.2,51.5,29.85,WNW,291,3.5,3.5,45,0.00,CLR,,0.00,0.0,WeatherDisplay:10.37,2014-10-02 01:59:00,
2014-10-01 19:04:00,73.9,52.4,29.86,WNW,290,3.5,3.5,47,0.00,CLR,,0.00,0.0,WeatherDisplay:10.37,2014-10-02 02:04:00,
2014-10-01 19:09:00,73.5,52.0,29.86,WNW,290,0.0,0.0,47,0.00,CLR,,0.00,0.0,WeatherDisplay:10.37,2014-10-02 02:09:00,
2014-10-01 19:14:00,73.2,51.8,29.86,WNW,290,0.0,0.0,47,0.00,CLR,,0.00,0.0,WeatherDisplay:10.37,2014-10-02 02:14:00,
2014-10-01 19:19:00,73.0,51.6,29.86,WNW,291,0.0,0.0,47,0.00,CLR,,0.00,0.0,WeatherDisplay:10.37,2014-10-02 02:19:00,
2014-10-01 19:24:00,72.8,50.8,29.86,WNW,290,1.0,0.0,46,0.00,CLR,,0.00,0.0,WeatherDisplay:10.37,2014-10-02 02:24:00,
2014-10-01 19:29:00,72.7,51.3,29.86,WNW,290,0.0,0.0,47,0.00,CLR,,0.00,0.0,WeatherDisplay:10.37,2014-10-02 02:29:00,
2014-10-01 19:34:00,72.5,52.2,29.86,WNW,290,1.2,1.2,49,0.00,CLR,,0.00,0.0,WeatherDisplay:10.37,2014-10-02 02:34:00,
2014-10-01 19:39:00,72.1,51.9,29.86,WNW,290,0.0,0.0,49,0.00,CLR,,0.00,0.0,WeatherDisplay:10.37,2014-10-02 02:39:00,
2014-10-01 19:44:00,71.8,51.6,29.86,WNW,290,1.0,0.0,49,0.00,CLR,,0.00,0.0,WeatherDisplay:10.37,2014-10-02 02:44:00,
2014-10-01 19:49:00,71.6,51.4,29.87,WNW,290,3.5,0.0,49,0.00,CLR,,0.00,0.0,WeatherDisplay:10.37,2014-10-02 02:49:00,
2014-10-01 19:54:00,71.5,51.9,29.87,WNW,290,2.3,0.0,50,0.00,CLR,,0.00,0.0,WeatherDisplay:10.37,2014-10-02 02:54:00,
2014-10-01 19:59:00,71.3,51.7,29.87,WNW,289,0.0,0.0,50,0.00,CLR,,0.00,0.0,WeatherDisplay:10.37,2014-10-02 02:59:00,
2014-10-01 20:04:00,71.1,51.5,29.88,WNW,290,0.0,0.0,50,0.00,CLR,,0.00,0.0,WeatherDisplay:10.37,2014-10-02 03:04:00,
2014-10-01 20:09:00,70.9,51.9,29.88,WNW,290,0.0,0.0,51,0.00,CLR,,0.00,0.0,WeatherDisplay:10.37,2014-10-02 03:09:00,
2014-10-01 20:14:00,70.8,52.3,29.88,WNW,290,0.0,0.0,52,0.00,CLR,,0.00,0.0,WeatherDisplay:10.37,2014-10-02 03:14:00,
2014-10-01 20:19:00,70.6,52.6,29.88,WNW,290,0.0,0.0,53,0.00,CLR,,0.00,0.0,WeatherDisplay:10.37,2014-10-02 03:19:00,
2014-10-01 20:24:00,70.3,52.9,29.88,WNW,290,0.0,0.0,54,0.00,CLR,,0.00,0.0,WeatherDisplay:10.37,2014-10-02 03:24:00,
2014-10-01 20:29:00,69.9,52.0,29.88,WNW,290,0.0,0.0,53,0.00,CLR,,0.00,0.0,WeatherDisplay:10.37,2014-10-02 03:29:00,
2014-10-01 20:32:00,69.8,51.9,29.88,WNW,290,0.0,0.0,53,0.00,CLR,,0.00,0.0,WeatherDisplay:10.37,2014-10-02 03:32:00,
2014-10-01 20:37:00,69.6,52.2,29.88,WNW,290,0.0,0.0,54,0.00,CLR,,0.00,0.0,WeatherDisplay:10.37,2014-10-02 03:37:00,
2014-10-01 20:42:00,69.4,52.5,29.88,WNW,290,0.0,0.0,55,0.00,CLR,,0.00,0.0,WeatherDisplay:10.37,2014-10-02 03:42:00,
2014-10-01 20:47:00,69.3,52.4,29.88,WNW,290,0.0,0.0,55,0.00,CLR,,0.00,0.0,WeatherDisplay:10.37,2014-10-02 03:47:00,
2014-10-01 20:52:00,69.1,52.2,29.88,WNW,290,0.0,0.0,55,0.00,CLR,,0.00,0.0,WeatherDisplay:10.37,2014-10-02 03:52:00,
2014-10-01 20:57:00,68.9,52.1,29.88,WNW,290,0.0,0.0,55,0.00,CLR,,0.00,0.0,WeatherDisplay:10.37,2014-10-02 03:57:00,
2014-10-01 21:02:00,68.9,52.6,29.89,WNW,290,0.0,0.0,56,0.00,CLR,,0.00,0.0,WeatherDisplay:10.37,2014-10-02 04:02:00,
2014-10-01 21:07:00,68.8,52.0,29.89,WNW,290,0.0,0.0,55,0.00,CLR,,0.00,0.0,WeatherDisplay:10.37,2014-10-02 04:07:00,
2014-10-01 21:12:00,68.4,51.6,29.89,WNW,290,0.0,0.0,55,0.00,CLR,,0.00,0.0,WeatherDisplay:10.37,2014-10-02 04:12:00,
2014-10-01 21:17:00,68.4,51.6,29.89,WNW,290,0.0,0.0,55,0.00,CLR,,0.00,0.0,WeatherDisplay:10.37,2014-10-02 04:17:00,
2014-10-01 21:22:00,68.3,52.5,29.89,WNW,290,0.0,0.0,57,0.00,CLR,,0.00,0.0,WeatherDisplay:10.37,2014-10-02 04:22:00,